Location: Eldred Sherwood Park Lake Dam
(42.9416°N, 93.5655°W)
Time: 01:35:48
(UTC+00:00)

BlueWalker 3 - Visible Passes

Search period start: 19 November 2025 00:00
Search period end: 29 November 2025 00:00
Orbit: 456 x 463 km, 53.2° (Epoch: 18 November)

Date Brightness Start Highest point End Pass type
(mag) Time Alt. Az. Time Alt. Az. Time Alt. Az.
19 Nov 2.4 00:27:33 10° SSW 00:30:55 39° SE 00:30:55 39° SE visible
19 Nov 2.8 23:53:16 10° SSW 23:56:30 30° SE 23:58:05 21° E visible
20 Nov 4.4 01:30:32 10° W 01:31:53 20° W 01:31:53 20° W visible
20 Nov 3.2 23:19:04 10° S 23:22:01 24° SE 23:24:59 10° ENE visible
21 Nov 2.7 00:55:51 10° WSW 00:58:56 45° WNW 00:58:56 45° WNW visible
22 Nov 2.1 00:21:12 10° WSW 00:24:46 60° NNW 00:25:54 39° NNE visible
22 Nov 1.8 23:46:34 10° WSW 23:50:11 76° NW 23:52:47 18° NE visible
23 Nov 4.5 01:25:23 10° WNW 01:26:35 16° NW 01:26:35 16° NW visible
23 Nov 1.8 23:11:58 10° SW 23:15:35 85° SE 23:19:14 10° NE visible
24 Nov 3.6 00:50:32 10° WNW 00:53:24 23° NNW 00:53:24 23° NNW visible
25 Nov 3.4 00:15:42 10° W 00:18:48 26° NNW 00:20:10 21° NNE visible
25 Nov 3.2 23:40:52 10° W 23:44:06 29° NNW 23:46:53 13° NE visible
26 Nov 4.7 01:20:10 10° NW 01:20:40 12° NW 01:20:40 12° NW visible
26 Nov 2.9 23:06:02 10° W 23:09:23 34° NNW 23:12:45 10° NE visible
27 Nov 4.0 00:45:20 10° NW 00:47:21 16° NNW 00:47:21 16° NNW visible
28 Nov 3.8 00:10:28 10° NW 00:12:58 17° N 00:14:01 15° NNE visible
28 Nov 3.8 23:35:34 10° WNW 23:38:09 18° N 23:40:39 10° NNE visible
